Location: A�t Bou Chrif
(32.7193°N, 5.2385°W)
Time: 03:54:12
(UTC+00:00)

CENTAUR R/B - Pass Details

Date: 08 August 2020
Orbit: 754 x 1434 km, 63.5° (Epoch: 17 September)

Event Time Altitude Azimuth Distance (km) Brightness Sun altitude
Exits shadow 22:51:54 41° 313° (NW) 1,318 3.4 -36.5°
Drops below altitude 10° 22:57:54 10° 17° (NNE) 2,855 5.4 -37.1°
Sets 23:00:56 0° 25° (NNE) 3,928 6.1 -37.4°
